• In Latvia
  • List of Countries
  • For 7 days
  • Water Temperature
  • Satellite Maps
  • Weather Map
  • Weather Widgets
  • user-avatar
    Login

    Hourly Weather Sydney

    Today, 12 December, Tuesday

    Time Temperature Precipitation Wind Pressure Humidity
    00:00 +20°C° 0 mm 1 mps 763 mmHg 86%
    01:00 +20°C° 0 mm 1 mps 763 mmHg 89%
    02:00 +20°C° 0 mm 1 mps 763 mmHg 90%
    03:00 +20°C° 0 mm 1 mps 763 mmHg 92%
    04:00 +20°C° 0 mm 1 mps 762 mmHg 94%
    05:00 +21°C° 0 mm 1 mps 762 mmHg 86%
    06:00 +23°C° 0 mm 1 mps 763 mmHg 78%
    07:00 +25°C° 0 mm 1 mps 763 mmHg 71%
    08:00 +27°C° 0 mm 2 mps 763 mmHg 62%
    09:00 +29°C° 0 mm 2 mps 763 mmHg 53%
    10:00 +31°C° 0 mm 3 mps 763 mmHg 45%
    11:00 +32°C° 0 mm 4 mps 762 mmHg 42%
    12:00 +33°C° 0 mm 5 mps 762 mmHg 40%
    13:00 +34°C° 0 mm 5 mps 761 mmHg 37%
    14:00 +33°C° 0 mm 6 mps 761 mmHg 40%
    15:00 +33°C° 0 mm 6 mps 760 mmHg 42%
    16:00 +30°C° 0 mm 6 mps 760 mmHg 49%
    17:00 +28°C° 0 mm 6 mps 760 mmHg 55%
    18:00 +26°C° 0 mm 6 mps 760 mmHg 61%
    19:00 +25°C° 0 mm 5 mps 760 mmHg 68%
    20:00 +23°C° 0 mm 5 mps 760 mmHg 72%
    21:00 +22°C° 0 mm 4 mps 761 mmHg 77%
    22:00 +21°C° 0 mm 4 mps 761 mmHg 81%
    23:00 +21°C° 0 mm 3 mps 760 mmHg 83%

    Tomorrow, 13 December, Wednesday

    Time Temperature Precipitation Wind Pressure Humidity
    00:00 +20°C° 0 mm 3 mps 760 mmHg 86%
    01:00 +20°C° 0 mm 3 mps 760 mmHg 88%
    02:00 +19°C° 0 mm 3 mps 760 mmHg 89%
    03:00 +19°C° 0 mm 3 mps 760 mmHg 91%
    04:00 +19°C° 0 mm 2 mps 759 mmHg 93%
    05:00 +21°C° 0 mm 3 mps 760 mmHg 84%
    06:00 +24°C° 0 mm 3 mps 760 mmHg 75%
    07:00 +26°C° 0 mm 3 mps 760 mmHg 66%
    08:00 +29°C° 0 mm 3 mps 760 mmHg 55%
    09:00 +33°C° 0 mm 3 mps 759 mmHg 45%
    10:00 +36°C° 0 mm 4 mps 759 mmHg 34%
    11:00 +37°C° 0 mm 5 mps 758 mmHg 30%
    12:00 +40°C° 0 mm 5 mps 758 mmHg 26%
    13:00 +42°C° 0 mm 6 mps 757 mmHg 22%
    14:00 +40°C° 0 mm 7 mps 757 mmHg 26%
    15:00 +38°C° 0 mm 7 mps 756 mmHg 31%
    16:00 +35°C° 0 mm 8 mps 756 mmHg 35%
    17:00 +34°C° 0 mm 8 mps 756 mmHg 39%
    18:00 +32°C° 0 mm 7 mps 756 mmHg 44%
    19:00 +29°C° 0 mm 7 mps 756 mmHg 48%
    20:00 +29°C° 0 mm 7 mps 756 mmHg 51%
    21:00 +28°C° 0 mm 6 mps 756 mmHg 53%
    22:00 +27°C° 0 mm 6 mps 756 mmHg 55%
    23:00 +26°C° 0 mm 6 mps 756 mmHg 58%

    Day after tomorrow, 14 December, Thursday

    Time Temperature Precipitation Wind Pressure Humidity
    00:00 +25°C° 0 mm 5 mps 756 mmHg 60%
    01:00 +23°C° 0 mm 5 mps 756 mmHg 63%
    02:00 +23°C° 0 mm 5 mps 755 mmHg 63%
    03:00 +22°C° 0 mm 5 mps 755 mmHg 63%
    04:00 +22°C° 0 mm 5 mps 755 mmHg 64%
    05:00 +25°C° 0 mm 5 mps 755 mmHg 56%
    06:00 +27°C° 0 mm 5 mps 755 mmHg 49%
    07:00 +29°C° 0 mm 5 mps 756 mmHg 41%
    08:00 +34°C° 0 mm 5 mps 756 mmHg 34%
    09:00 +37°C° 0 mm 5 mps 755 mmHg 26%
    10:00 +42°C° 0 mm 5 mps 755 mmHg 18%
    11:00 +44°C° 0 mm 6 mps 755 mmHg 17%
    12:00 +44°C° 0 mm 6 mps 754 mmHg 16%
    13:00 +45°C° 0 mm 6 mps 754 mmHg 15%
    14:00 +44°C° 0 mm 6 mps 754 mmHg 18%
    15:00 +41°C° 0 mm 6 mps 753 mmHg 21%
    16:00 +39°C° 0 mm 5 mps 753 mmHg 25%
    17:00 +37°C° 0 mm 5 mps 753 mmHg 29%
    18:00 +35°C° 0 mm 5 mps 754 mmHg 32%
    19:00 +34°C° 0 mm 5 mps 754 mmHg 36%
    20:00 +32°C° 0.1 mm 4 mps 755 mmHg 44%
    21:00 +29°C° 0.1 mm 3 mps 755 mmHg 52%
    22:00 +27°C° 0.1 mm 1 mps 756 mmHg 60%
    23:00 +26°C° 0.1 mm 3 mps 756 mmHg 66%

    15 December, Friday

    Time Temperature Precipitation Wind Pressure Humidity
    00:00 +25°C° 0.1 mm 4 mps 756 mmHg 71%
    01:00 +23°C° 0.1 mm 5 mps 756 mmHg 77%
    02:00 +23°C° 0.1 mm 6 mps 757 mmHg 81%
    03:00 +22°C° 0.1 mm 6 mps 757 mmHg 84%
    04:00 +22°C° 0.1 mm 7 mps 757 mmHg 87%
    05:00 +22°C° 0.1 mm 6 mps 758 mmHg 87%
    06:00 +22°C° 0.1 mm 5 mps 758 mmHg 87%
    07:00 +22°C° 0.1 mm 4 mps 759 mmHg 87%
    08:00 +22°C° 0.3 mm 4 mps 759 mmHg 86%
    09:00 +22°C° 0.3 mm 4 mps 759 mmHg 85%
    10:00 +22°C° 0.3 mm 4 mps 759 mmHg 85%
    11:00 +24°C° 0.1 mm 3 mps 759 mmHg 82%
    12:00 +24°C° 0.1 mm 3 mps 759 mmHg 80%
    13:00 +25°C° 0.1 mm 2 mps 758 mmHg 78%
    14:00 +25°C° 0.3 mm 2 mps 758 mmHg 76%
    15:00 +26°C° 0.3 mm 3 mps 758 mmHg 75%
    16:00 +27°C° 0.3 mm 3 mps 757 mmHg 74%
    17:00 +26°C° 0.1 mm 4 mps 758 mmHg 74%
    18:00 +26°C° 0.1 mm 6 mps 758 mmHg 74%
    19:00 +24°C° 0.1 mm 7 mps 758 mmHg 74%
    20:00 +24°C° 0 mm 6 mps 759 mmHg 75%
    21:00 +23°C° 0 mm 5 mps 759 mmHg 76%
    22:00 +23°C° 0 mm 4 mps 759 mmHg 77%
    23:00 +23°C° 0 mm 4 mps 759 mmHg 79%

    16 December, Saturday

    Time Temperature Precipitation Wind Pressure Humidity
    00:00 +22°C° 0 mm 4 mps 758 mmHg 81%
    01:00 +22°C° 0 mm 4 mps 758 mmHg 82%
    02:00 +22°C° 0 mm 4 mps 758 mmHg 81%
    03:00 +22°C° 0 mm 4 mps 758 mmHg 81%
    04:00 +22°C° 0 mm 4 mps 758 mmHg 80%
    05:00 +25°C° 0 mm 4 mps 758 mmHg 72%
    06:00 +27°C° 0 mm 4 mps 759 mmHg 64%
    07:00 +28°C° 0 mm 4 mps 759 mmHg 56%
    08:00 +33°C° 0 mm 4 mps 759 mmHg 45%
    09:00 +36°C° 0 mm 4 mps 759 mmHg 34%
    10:00 +41°C° 0 mm 5 mps 759 mmHg 23%
    11:00 +41°C° 0 mm 5 mps 758 mmHg 23%
    12:00 +41°C° 0 mm 5 mps 758 mmHg 23%
    13:00 +41°C° 0 mm 5 mps 757 mmHg 23%
    14:00 +39°C° 0 mm 5 mps 757 mmHg 28%
    15:00 +38°C° 0 mm 6 mps 757 mmHg 33%
    16:00 +35°C° 0 mm 6 mps 757 mmHg 38%
    17:00 +33°C° 0 mm 5 mps 757 mmHg 44%
    18:00 +32°C° 0 mm 5 mps 758 mmHg 50%
    19:00 +29°C° 0 mm 4 mps 758 mmHg 56%
    20:00 +28°C° 0.1 mm 4 mps 759 mmHg 61%
    21:00 +27°C° 0.1 mm 3 mps 759 mmHg 66%
    22:00 +26°C° 0.1 mm 3 mps 759 mmHg 71%
    23:00 +26°C° 0 mm 3 mps 759 mmHg 75%

    17 December, Sunday

    Time Temperature Precipitation Wind Pressure Humidity
    00:00 +25°C° 0 mm 3 mps 759 mmHg 78%
    01:00 +25°C° 0 mm 3 mps 759 mmHg 82%
    02:00 +24°C° 0 mm 3 mps 759 mmHg 84%
    03:00 +24°C° 0 mm 3 mps 759 mmHg 86%
    04:00 +24°C° 0 mm 3 mps 759 mmHg 88%
    05:00 +24°C° 0 mm 3 mps 760 mmHg 86%
    06:00 +25°C° 0 mm 3 mps 760 mmHg 83%
    07:00 +25°C° 0 mm 3 mps 761 mmHg 81%
    08:00 +27°C° 0 mm 3 mps 761 mmHg 74%
    09:00 +28°C° 0 mm 3 mps 761 mmHg 68%
    10:00 +30°C° 0 mm 3 mps 761 mmHg 61%
    11:00 +33°C° 0 mm 3 mps 760 mmHg 55%
    12:00 +35°C° 0 mm 3 mps 760 mmHg 48%
    13:00 +37°C° 0 mm 3 mps 759 mmHg 42%
    14:00 +35°C° 0 mm 3 mps 759 mmHg 47%
    15:00 +34°C° 0 mm 3 mps 759 mmHg 51%
    16:00 +33°C° 0 mm 4 mps 758 mmHg 56%
    17:00 +30°C° 0.1 mm 3 mps 759 mmHg 62%
    18:00 +28°C° 0.1 mm 3 mps 759 mmHg 69%
    19:00 +26°C° 0.1 mm 2 mps 759 mmHg 75%
    20:00 +26°C° 0.1 mm 2 mps 760 mmHg 78%
    21:00 +25°C° 0.1 mm 2 mps 760 mmHg 81%
    22:00 +24°C° 0.1 mm 2 mps 760 mmHg 84%
    23:00 +24°C° 0.4 mm 2 mps 760 mmHg 87%
    Show more